Flag for Germany Weather past 2 weeks in Rheine, North Rhine-Westphalia, Germany

Now
59 °F

Refreshingly cool.


Feels Like: 57 °F
Forecast: 46 / 69 °F
Wind: 13 mph from Northeast

Location: Rheine-Bentlage


UV Index: 3 (Moderate)

Visibility: 3 mi


Pressure: 30.07 "Hg

Humidity: 55%

Dew point: 43 °F

Location of RheineLocation

Historic Weather in Rheine

°F

Rheine temperature yesterday

Maximum temperature yesterday: 52 °F (at 1:20 PM)
Minimum temperature yesterday: 41 °F (at 6:20 AM)
Average temperature yesterday: 47 °F

Past Weeks' High & Low Weather Summary

 TemperatureHumidityPressure
High70 °F (Apr 7, 4:20 PM)100% (Apr 7, 6:20 AM)30.48 "Hg (Apr 7, 6:20 AM)
Low30 °F (Apr 16, 5:20 AM)36% (Apr 16, 3:20 PM)29.71 "Hg (Apr 7, 11:20 PM)
Average50 °F80%30.09 "Hg
* Reported Apr 7 5:20 AM — Apr 19 2:20 PM, Rheine, Weather by CustomWeather, © 2014

Note: Actual official high and low records may vary slightly from our data, if they occured in-between our weather recording intervals... More about our weather records

Advertising

Historic Weather Conditions — Data for Previous 24 hours

 ConditionsComfort  
Time TempWeatherWind HumidityBarometerVisibility
2:20 PM
Apr 19
59 °FRefreshingly cool.13 mph55%30.07 "Hg3 mi
1:20 PM57 °FRefreshingly cool.13 mph55%30.09 "Hg3 mi
12:20 PM54 °FCool.12 mph63%30.12 "Hg3 mi
11:20 AM52 °FCool.10 mph72%30.12 "Hg3 mi
10:20 AM48 °FCool.8 mph82%30.12 "Hg3 mi
9:20 AM46 °FCool.9 mph87%30.12 "Hg2 mi
8:20 AM45 °FQuite cool.9 mph93%30.09 "Hg2 mi
7:20 AM43 °FQuite cool.7 mph93%30.07 "Hg1 mi
6:20 AM41 °FQuite cool.5 mph100%30.04 "Hg2 mi
5:20 AM43 °FQuite cool.7 mph100%30.04 "Hg2 mi
4:20 AM43 °FQuite cool.8 mph100%30.01 "Hg2 mi
3:20 AM43 °FQuite cool.8 mph93%30.01 "Hg2 mi
2:20 AM45 °FQuite cool.7 mph93%30.01 "Hg2 mi
1:20 AM45 °FQuite cool.5 mph100%29.98 "Hg2 mi
12:20 AM45 °FQuite cool.6 mph100%29.98 "Hg2 mi
11:20 PM
Apr 18
45 °FQuite cool.7 mph93%29.98 "Hg2 mi
10:20 PM45 °FQuite cool.6 mph87%29.98 "Hg2 mi
9:20 PM46 °FCool.6 mph82%29.98 "Hg2 mi
8:20 PM48 °FCool.9 mph71%29.98 "Hg2 mi
7:20 PM50 °FCool.10 mph67%29.98 "Hg2 mi
6:20 PM52 °FCool.10 mph58%29.95 "Hg2 mi
5:20 PM52 °FCool.13 mph62%29.95 "Hg2 mi
4:20 PM52 °FCool.13 mph62%29.95 "Hg2 mi
3:20 PM52 °FCool.14 mph58%29.95 "Hg3 mi
Weather by CustomWeather, © 2014

See weather overview